Flag for United Kingdom Weather past 2 weeks in Cheltenham, England, United Kingdom

Now
79 °F

Sunny.


Feels Like: 79 °F
Forecast: 57 / 79 °F
Wind: 9 mph from Northeast

Location: Staverton Private

Current Time: Jul 22, 2014 at 9:28:37 PM

Latest Report: Jul 22, 2014 at 5:50 PM


Visibility: 10 mi

Pressure: 30.18 "Hg

Humidity: 39%

Dew point: 52 °F

Location of CheltenhamLocation

Historic Weather in Cheltenham — Graph

°F

Cheltenham temperature yesterday

Maximum temperature yesterday: 77 °F (at 3:50 PM)
Minimum temperature yesterday: 61 °F (at 6:50 AM)
Average temperature yesterday: 72 °F

Past Weeks' High & Low Weather Summary

 TemperatureHumidityPressure
High81 °F (Jul 17, 3:20 PM)94% (Jul 19, 9:20 AM)30.24 "Hg (Jul 19, 9:20 AM)
Low54 °F (Jul 9, 6:50 AM)36% (Jul 10, 5:50 PM)29.71 "Hg (Jul 19, 3:50 PM)
Average70 °F60%30.00 "Hg
* Reported Jul 7 5:20 PM — Jul 22 5:50 PM, Cheltenham, Weather by CustomWeather, © 2014

Note: Actual official high and low records may vary slightly from our data, if they occured in-between our weather recording intervals... More about our weather records

Advertising

Cheltenham weather history for previous 24 hours

 ConditionsComfort  
Time TempWeatherWind HumidityBarometerVisibility
5:50 PM
Jul 22
79 °FSunny.9 mph39%30.18 "Hg10 mi
5:20 PM79 °FPassing clouds.7 mph42%30.18 "HgN/A
4:50 PM79 °FSunny.6 mph39%30.18 "Hg10 mi
4:20 PM79 °FPassing clouds.6 mph39%30.18 "HgN/A
3:20 PM79 °FSunny.3 mph42%30.21 "Hg10 mi
2:50 PM77 °FPassing clouds.5 mph44%30.21 "HgN/A
2:20 PM79 °FPassing clouds.7 mph45%30.21 "HgN/A
1:50 PM77 °FPassing clouds.3 mph51%30.21 "HgN/A
1:20 PM77 °FPassing clouds.3 mph47%30.21 "HgN/A
12:50 PM77 °FPassing clouds.3 mph47%30.21 "HgN/A
12:20 PM77 °FPassing clouds.6 mph44%30.21 "HgN/A
11:50 AM75 °FPassing clouds.3 mph47%30.24 "HgN/A
11:20 AM73 °FPassing clouds.3 mph50%30.24 "HgN/A
10:50 AM73 °FPassing clouds.2 mph53%30.24 "HgN/A
10:20 AM72 °FPassing clouds.3 mph57%30.24 "HgN/A
9:50 AM70 °FSunny.2 mph64%30.24 "Hg10 mi
9:20 AM68 °FSunny.3 mph64%30.24 "Hg10 mi
8:50 AM68 °FSunny.2 mph69%30.24 "Hg10 mi
8:20 AM64 °FSunny.No wind78%30.24 "Hg10 mi
7:50 AM64 °FSunny.No wind78%30.24 "Hg10 mi
7:20 AM63 °FSunny.No wind83%30.21 "Hg10 mi
6:50 AM61 °FSunny.No wind83%30.21 "Hg10 mi
Weather by CustomWeather, © 2014

See weather overviewHow to use our weather pages